FW9609 Weather Reports


Display with metric or nautical units.
time (UTC)temp
F
wind
direction
speed
MPH
gust
MPH
rain 1hr
in
rain 24hr
in
rain mn
in
humidity
%
barometer
mb
20220122182535 50 300 1.0 0.0 0.00 0.00 0.00 38 1031.7
20220122182034 49 322 1.0 0.0 0.00 0.00 0.00 43 1031.9
20220122181615 49 160 1.0 0.0 0.00 0.00 0.00 40 1032.0
20220122181032 49 327 1.0 0.0 0.00 0.00 0.00 40 1032.1
20220122180531 49 104 1.0 0.0 0.00 0.00 0.00 38 1032.2
20220122180050 48 146 1.0 0.0 0.00 0.00 0.00 40 1032.3
20220122175529 47 152 1.0 0.0 0.00 0.00 0.00 39 1032.4
20220122175028 47 281 1.0 0.0 0.00 0.00 0.00 41 1032.5
20220122174607 47 302 1.0 0.0 0.00 0.00 0.00 43 1032.7
20220122174025 46 312 1.0 0.0 0.00 0.00 0.00 43 1032.8
20220122173523 46 220 1.0 0.0 0.00 0.00 0.00 45 1032.9
20220122173024 46 316 1.0 0.0 0.00 0.00 0.00 41 1033.0
20220122172524 46 303 1.0 0.0 0.00 0.00 0.00 42 1033.1
20220122172028 45 281 0.0 0.0 0.00 0.00 0.00 42 1033.1
20220122171520 45 144 1.0 0.0 0.00 0.00 0.00 46 1033.3
20220122171018 44 276 1.0 0.0 0.00 0.00 0.00 45 1033.3
20220122170521 44 169 1.0 0.0 0.00 0.00 0.00 42 1033.4
20220122170031 44 1 0.0 0.0 0.00 0.00 0.00 44 1033.4
20220122165515 43 165 1.0 0.0 0.00 0.00 0.00 46 1033.3
20220122165014 43 206 1.0 0.0 0.00 0.00 0.00 45 1033.4
20220122164516 43 316 1.0 0.0 0.00 0.00 0.00 47 1033.5
20220122164012 42 138 1.0 0.0 0.00 0.00 0.00 50 1033.5
20220122163511 42 128 1.0 0.0 0.00 0.00 0.00 43 1033.6
20220122163041 41 105 1.0 0.0 0.00 0.00 0.00 48 1033.6
20220122162513 41 320 1.0 0.0 0.00 0.00 0.00 50 1033.6
20220122162008 41 156 1.0 0.0 0.00 0.00 0.00 48 1033.6
20220122161507 40 177 0.0 0.0 0.00 0.00 0.00 55 1033.7
20220122161012 40 306 1.0 0.0 0.00 0.00 0.00 56 1033.6
20220122160504 39 306 1.0 0.0 0.00 0.00 0.00 60 1033.6
20220122160006 39 294 0.0 0.0 0.00 0.00 0.00 60 1033.4
20220122155503 38 268 0.0 0.0 0.00 0.00 0.00 59 1033.4
20220122155059 38 201 0.0 0.0 0.00 0.00 0.00 63 1033.3
20220122154613 37 308 1.0 0.0 0.00 0.00 0.00 65 1033.3
20220122154056 37 284 1.0 0.0 0.00 0.00 0.00 61 1033.2
20220122153557 36 225 1.0 0.0 0.00 0.00 0.00 64 1033.2
20220122153159 36 313 1.0 0.0 0.00 0.00 0.00 68 1033.2
20220122152551 36 311 0.0 0.0 0.00 0.00 0.00 69 1033.2
20220122152052 35 323 0.0 0.0 0.00 0.00 0.00 69 1033.1
20220122151616 35 13 1.0 0.0 0.00 0.00 0.00 68 1033.1
20220122151057 34 304 1.0 0.0 0.00 0.00 0.00 70 1033.1
20220122150546 34 336 0.0 0.0 0.00 0.00 0.00 72 1033.1
20220122150053 34 5 0.0 0.0 0.00 0.00 0.00 72 1033.0
20220122145548 34 323 0.0 0.0 0.00 0.00 0.00 75 1033.0
20220122145058 33 181 1.0 0.0 0.00 0.00 0.00 74 1032.8
20220122144547 33 246 1.0 0.0 0.00 0.00 0.00 74 1032.9
20220122144044 33 150 0.0 0.0 0.00 0.00 0.00 78 1032.9
20220122143544 33 260 0.0 0.0 0.00 0.00 0.00 79 1032.8
20220122143112 32 200 0.0 0.0 0.00 0.00 0.00 79 1032.8
20220122142542 32 202 0.0 0.0 0.00 0.00 0.00 80 1032.9
20220122142042 32 265 0.0 0.0 0.00 0.00 0.00 80 1032.7
20220122141624 32 269 0.0 0.0 0.00 0.00 0.00 81 1032.7
20220122141039 31 269 0.0 0.0 0.00 0.00 0.00 80 1032.6
20220122140546 31 269 0.0 0.0 0.00 0.00 0.00 81 1032.5
20220122140131 31 269 0.0 0.0 0.00 0.00 0.00 81 1032.4
20220122135541 31 269 0.0 0.0 0.00 0.00 0.00 82 1032.4
20220122135036 31 269 0.0 0.0 0.00 0.00 0.00 82 1032.3
20220122134604 31 269 0.0 0.0 0.00 0.00 0.00 81 1032.3
20220122134035 31 269 0.0 0.0 0.00 0.00 0.00 81 1032.2
20220122133534 31 269 0.0 0.0 0.00 0.00 0.00 82 1032.1
20220122133048 31 269 0.0 0.0 0.00 0.00 0.00 81 1032.1
20220122132533 31 269 0.0 0.0 0.00 0.00 0.00 81 1032.1
20220122132100 31 269 0.0 0.0 0.00 0.00 0.00 81 1032.0
20220122131604 31 269 0.0 0.0 0.00 0.00 0.00 80 1032.0
20220122131031 30 269 0.0 0.0 0.00 0.00 0.00 80 1031.9
20220122130533 30 269 0.0 0.0 0.00 0.00 0.00 79 1031.9
20220122130400 30 269 0.0 0.0 0.00 0.00 0.00 81 1031.8
20220122125529 30 269 0.0 0.0 0.00 0.00 0.00 81 1031.7
20220122125030 30 269 0.0 0.0 0.00 0.00 0.00 80 1031.7
20220122124617 30 269 0.0 0.0 0.00 0.00 0.00 81 1031.7
20220122124028 30 269 0.0 0.0 0.00 0.00 0.00 81 1031.6
20220122123537 30 269 0.0 0.0 0.00 0.00 0.00 81 1031.5
20220122123048 30 269 0.0 0.0 0.00 0.00 0.00 82 1031.5
20220122122538 30 269 0.0 0.0 0.00 0.00 0.00 82 1031.5
20220122122028 30 269 0.0 0.0 0.00 0.00 0.00 81 1031.5
20220122121601 30 269 0.0 0.0 0.00 0.00 0.00 82 1031.3
20220122121048 30 269 0.0 0.0 0.00 0.00 0.00 84 1031.2
20220122120525 30 269 0.0 0.0 0.00 0.00 0.00 83 1031.1
20220122120036 30 269 0.0 0.0 0.00 0.00 0.00 84 1031.1
20220122115532 30 269 0.0 0.0 0.00 0.00 0.00 83 1031.0
20220122115024 30 269 0.0 0.0 0.00 0.00 0.00 84 1031.0
20220122114539 30 269 0.0 0.0 0.00 0.00 0.00 85 1031.0
20220122114024 30 269 0.0 0.0 0.00 0.00 0.00 86 1031.0
20220122113531 30 269 0.0 0.0 0.00 0.00 0.00 86 1031.0
20220122113036 30 269 0.0 0.0 0.00 0.00 0.00 86 1030.8
20220122112526 30 269 0.0 0.0 0.00 0.00 0.00 86 1030.8
20220122112020 30 269 0.0 0.0 0.00 0.00 0.00 87 1030.7
20220122111521 30 269 0.0 0.0 0.00 0.00 0.00 88 1030.7
20220122111023 30 269 0.0 0.0 0.00 0.00 0.00 89 1030.7
20220122110519 30 269 0.0 0.0 0.00 0.00 0.00 89 1030.7
20220122110029 30 269 0.0 0.0 0.00 0.00 0.00 88 1030.6
20220122105519 30 269 0.0 0.0 0.00 0.00 0.00 88 1030.6
20220122105025 30 269 0.0 0.0 0.00 0.00 0.00 88 1030.6
20220122104538 30 269 0.0 0.0 0.00 0.00 0.00 87 1030.6
20220122104018 30 269 0.0 0.0 0.00 0.00 0.00 87 1030.5
20220122103518 30 269 0.0 0.0 0.00 0.00 0.00 87 1030.5
20220122103030 30 269 0.0 0.0 0.00 0.00 0.00 87 1030.5
20220122102535 30 269 0.0 0.0 0.00 0.00 0.00 86 1030.5
20220122102021 30 269 0.0 0.0 0.00 0.00 0.00 87 1030.4
20220122101530 30 269 0.0 0.0 0.00 0.00 0.00 87 1030.4
20220122101014 30 269 0.0 0.0 0.00 0.00 0.00 87 1030.3
20220122100515 30 269 0.0 0.0 0.00 0.00 0.00 87 1030.3
20220122100014 30 269 0.0 0.0 0.00 0.00 0.00 87 1030.2
20220122095519 30 269 0.0 0.0 0.00 0.00 0.00 86 1030.1
20220122095015 30 269 0.0 0.0 0.00 0.00 0.00 87 1030.1
20220122094605 30 269 0.0 0.0 0.00 0.00 0.00 87 1030.1
20220122094012 30 269 0.0 0.0 0.00 0.00 0.00 86 1030.2
20220122093514 30 269 0.0 0.0 0.00 0.00 0.00 86 1030.2
20220122093028 30 269 0.0 0.0 0.00 0.00 0.00 85 1030.1
20220122092514 30 269 0.0 0.0 0.00 0.00 0.00 85 1030.1
20220122092028 30 269 0.0 0.0 0.00 0.00 0.00 86 1030.1
20220122091511 30 269 0.0 0.0 0.00 0.00 0.00 85 1030.1
20220122091035 30 269 0.0 0.0 0.00 0.00 0.00 85 1030.1
20220122090513 31 269 0.0 0.0 0.00 0.00 0.00 85 1030.0
20220122090014 31 269 0.0 0.0 0.00 0.00 0.00 85 1029.9
20220122085507 31 269 0.0 0.0 0.00 0.00 0.00 84 1029.9
20220122085007 31 269 0.0 0.0 0.00 0.00 0.00 85 1029.9
20220122084509 31 269 0.0 0.0 0.00 0.00 0.00 84 1029.9
20220122084007 31 269 0.0 0.0 0.00 0.00 0.00 85 1029.9
20220122083507 31 269 0.0 0.0 0.00 0.00 0.00 85 1029.9
20220122083005 31 269 0.0 0.0 0.00 0.00 0.00 84 1029.8
20220122082511 31 269 0.0 0.0 0.00 0.00 0.00 84 1029.7
20220122082003 31 269 0.0 0.0 0.00 0.00 0.00 84 1029.5
20220122081504 31 269 0.0 0.0 0.00 0.00 0.00 83 1029.6
20220122081002 31 269 0.0 0.0 0.00 0.00 0.00 83 1029.6
20220122080505 31 269 0.0 0.0 0.00 0.00 0.00 85 1029.6
20220122080011 32 269 0.0 0.0 0.00 0.00 0.00 84 1029.6
20220122075600 32 269 0.0 0.0 0.00 0.00 0.00 84 1029.6
20220122075100 32 269 0.0 0.0 0.00 0.00 0.00 84 1029.5
20220122074600 32 269 0.0 0.0 0.00 0.00 0.00 84 1029.5
20220122074058 32 269 0.0 0.0 0.00 0.00 0.00 83 1029.3
20220122073557 32 269 0.0 0.0 0.00 0.00 0.00 82 1029.3
20220122073125 32 269 0.0 0.0 0.00 0.00 0.00 83 1029.2
20220122072612 33 269 0.0 0.0 0.00 0.00 0.00 83 1029.2
20220122072057 33 269 0.0 0.0 0.00 0.00 0.00 82 1029.3
20220122071611 33 269 0.0 0.0 0.00 0.00 0.00 83 1029.4
20220122071057 33 269 0.0 0.0 0.00 0.00 0.00 83 1029.5
20220122070556 33 269 0.0 0.0 0.00 0.00 0.00 82 1029.4
20220122070205 33 269 0.0 0.0 0.00 0.00 0.00 81 1029.4
20220122065555 33 269 0.0 0.0 0.00 0.00 0.00 81 1029.3
20220122065100 33 269 0.0 0.0 0.00 0.00 0.00 80 1029.4
20220122064628 34 269 0.0 0.0 0.00 0.00 0.00 81 1029.3
20220122064100 34 269 0.0 0.0 0.00 0.00 0.00 79 1029.4
20220122063551 34 269 0.0 0.0 0.00 0.00 0.00 80 1029.1
20220122063136 34 269 0.0 0.0 0.00 0.00 0.00 78 1029.1
20220122062549 34 269 0.0 0.0 0.00 0.00 0.00 76 1029.2
20220122062104 34 269 0.0 0.0 0.00 0.00 0.00 75 1029.2
20220122061715 35 269 0.0 0.0 0.00 0.00 0.00 75 1029.1
20220122061052 35 269 0.0 0.0 0.00 0.00 0.00 75 1029.0
20220122060605 35 269 0.0 0.0 0.00 0.00 0.00 74 1029.1
20220122060109 35 269 0.0 0.0 0.00 0.00 0.00 74 1029.2
20220122055546 35 269 0.0 0.0 0.00 0.00 0.00 75 1029.3
20220122055051 35 269 0.0 0.0 0.00 0.00 0.00 76 1029.3
20220122054550 35 269 0.0 0.0 0.00 0.00 0.00 75 1029.5
20220122054045 35 269 0.0 0.0 0.00 0.00 0.00 74 1029.6
20220122053552 35 269 0.0 0.0 0.00 0.00 0.00 73 1029.5
20220122053054 35 269 0.0 0.0 0.00 0.00 0.00 72 1029.7
20220122052544 35 269 0.0 0.0 0.00 0.00 0.00 73 1029.7
20220122052044 35 269 0.0 0.0 0.00 0.00 0.00 74 1029.6
20220122051625 35 269 0.0 0.0 0.00 0.00 0.00 75 1029.5
20220122051054 35 269 0.0 0.0 0.00 0.00 0.00 77 1029.3
20220122050543 35 269 0.0 0.0 0.00 0.00 0.00 78 1029.2
20220122050220 35 269 0.0 0.0 0.00 0.00 0.00 78 1029.2
20220122045544 35 269 0.0 0.0 0.00 0.00 0.00 78 1029.3
20220122045043 35 269 0.0 0.0 0.00 0.00 0.00 80 1029.4
20220122044646 35 269 0.0 0.0 0.00 0.00 0.00 82 1029.5
20220122044043 34 269 0.0 0.0 0.00 0.00 0.00 82 1029.5
20220122043557 34 269 0.0 0.0 0.00 0.00 0.00 81 1029.4
20220122043113 34 269 0.0 0.0 0.00 0.00 0.00 82 1029.4
20220122042556 34 269 0.0 0.0 0.00 0.00 0.00 83 1029.3
20220122042045 34 267 0.0 0.0 0.00 0.00 0.00 83 1029.3
20220122041605 34 267 0.0 0.0 0.00 0.00 0.00 82 1029.3
20220122041048 35 267 0.0 0.0 0.00 0.00 0.00 83 1029.3
20220122040542 35 267 0.0 0.0 0.00 0.00 0.00 82 1029.3
20220122040047 35 267 0.0 0.0 0.00 0.00 0.00 81 1029.3
20220122035548 35 267 0.0 0.0 0.00 0.00 0.00 81 1029.5
20220122035042 35 267 0.0 0.0 0.00 0.00 0.00 81 1029.4
20220122034553 35 267 0.0 0.0 0.00 0.00 0.00 81 1029.5
20220122034042 35 267 0.0 0.0 0.00 0.00 0.00 82 1029.4
20220122033616 35 267 0.0 0.0 0.00 0.00 0.00 82 1029.3
20220122033059 35 267 0.0 0.0 0.00 0.00 0.00 82 1029.3
20220122032540 35 267 0.0 0.0 0.00 0.00 0.00 82 1029.3
20220122032040 35 267 0.0 0.0 0.00 0.00 0.00 82 1029.5
20220122031600 35 267 0.0 0.0 0.00 0.00 0.00 81 1029.4
20220122031042 35 267 0.0 0.0 0.00 0.00 0.00 80 1029.3
20220122030539 36 267 0.0 0.0 0.00 0.00 0.00 80 1029.3
20220122030056 36 267 0.0 0.0 0.00 0.00 0.00 80 1029.2
20220122025556 36 267 0.0 0.0 0.00 0.00 0.00 79 1029.2
20220122025039 36 267 0.0 0.0 0.00 0.00 0.00 79 1029.2
20220122024556 36 267 0.0 0.0 0.00 0.00 0.00 79 1029.1
20220122024114 36 267 0.0 0.0 0.00 0.00 0.00 77 1029.1
20220122023538 36 267 0.0 0.0 0.00 0.00 0.00 77 1029.1
20220122023112 37 267 0.0 0.0 0.00 0.00 0.00 77 1029.0
20220122022537 37 267 0.0 0.0 0.00 0.00 0.00 77 1029.0
20220122022042 37 267 0.0 0.0 0.00 0.00 0.00 76 1028.9
20220122021622 37 267 0.0 0.0 0.00 0.00 0.00 75 1028.8
20220122021036 37 267 0.0 0.0 0.00 0.00 0.00 75 1028.8
20220122020541 37 267 0.0 0.0 0.00 0.00 0.00 74 1028.7
20220122020054 38 267 0.0 0.0 0.00 0.00 0.00 73 1028.8
20220122015540 38 267 0.0 0.0 0.00 0.00 0.00 72 1028.7
20220122015035 38 267 0.0 0.0 0.00 0.00 0.00 75 1028.6
20220122014602 38 267 0.0 0.0 0.00 0.00 0.00 72 1028.6
20220122014051 38 267 0.0 0.0 0.00 0.00 0.00 71 1028.6
20220122013535 38 267 0.0 0.0 0.00 0.00 0.00 71 1028.5
20220122013108 39 267 0.0 0.0 0.00 0.00 0.00 71 1028.5
20220122012541 39 267 0.0 0.0 0.00 0.00 0.00 69 1028.5
20220122012036 39 267 0.0 0.0 0.00 0.00 0.00 68 1028.4
20220122011633 40 267 0.0 0.0 0.00 0.00 0.00 68 1028.3
20220122011037 40 267 0.0 0.0 0.00 0.00 0.00 66 1028.3
20220122010548 41 267 0.0 0.0 0.00 0.00 0.00 66 1028.2
20220122010128 41 267 0.0 0.0 0.00 0.00 0.00 67 1028.1
20220122005536 41 267 0.0 0.0 0.00 0.00 0.00 65 1028.0
20220122005037 42 267 0.0 0.0 0.00 0.00 0.00 63 1027.9
20220122004555 42 267 0.0 0.0 0.00 0.00 0.00 63 1027.8
20220122004035 42 267 0.0 0.0 0.00 0.00 0.00 61 1027.8
20220122003537 43 267 0.0 0.0 0.00 0.00 0.00 60 1027.6
20220122003111 43 267 0.0 0.0 0.00 0.00 0.00 56 1027.5
20220122002534 43 267 0.0 0.0 0.00 0.00 0.00 55 1027.4
20220122002040 44 267 0.0 0.0 0.00 0.00 0.00 51 1027.4
20220122001552 44 267 0.0 0.0 0.00 0.00 0.00 49 1027.3
20220122001036 44 267 0.0 0.0 0.00 0.00 0.00 54 1027.2
20220122000540 44 267 0.0 0.0 0.00 0.00 0.00 48 1027.1
20220122000133 45 267 0.0 0.0 0.00 0.00 0.00 47 1027.1
20220121235533 45 269 0.0 0.0 0.00 0.00 0.00 46 1027.0
20220121235033 46 270 0.0 0.0 0.00 0.00 0.00 44 1026.9
20220121234539 46 270 0.0 0.0 0.00 0.00 0.00 47 1026.9
20220121234030 46 270 0.0 0.0 0.00 0.00 0.00 45 1026.7
20220121233535 46 270 0.0 0.0 0.00 0.00 0.00 44 1026.6
20220121233048 47 293 0.0 0.0 0.00 0.00 0.00 45 1026.5
20220121232530 47 293 0.0 0.0 0.00 0.00 0.00 43 1026.4
20220121232030 47 293 0.0 0.0 0.00 0.00 0.00 44 1026.5
20220121231546 47 293 0.0 0.0 0.00 0.00 0.00 41 1026.5
20220121231029 47 293 0.0 0.0 0.00 0.00 0.00 39 1026.6
20220121230535 48 293 1.0 0.0 0.00 0.00 0.00 43 1026.5
20220121230030 48 308 1.0 0.0 0.00 0.00 0.00 39 1026.6
20220121225530 48 330 1.0 0.0 0.00 0.00 0.00 40 1026.6
20220121225030 48 331 1.0 0.0 0.00 0.00 0.00 38 1026.6
20220121224656 48 277 1.0 0.0 0.00 0.00 0.00 37 1026.5
20220121224029 49 145 0.0 0.0 0.00 0.00 0.00 39 1026.6
20220121223528 49 147 0.0 0.0 0.00 0.00 0.00 35 1026.5
20220121223039 49 309 0.0 0.0 0.00 0.00 0.00 38 1026.4
20220121222531 49 310 0.0 0.0 0.00 0.00 0.00 40 1026.4
20220121222110 49 302 0.0 0.0 0.00 0.00 0.00 38 1026.4
20220121221535 49 279 0.0 0.0 0.00 0.00 0.00 37 1026.4
20220121221028 49 246 0.0 0.0 0.00 0.00 0.00 38 1026.4
20220121220532 49 269 1.0 0.0 0.00 0.00 0.00 35 1026.5
20220121220113 49 305 1.0 0.0 0.00 0.00 0.00 37 1026.6
20220121215526 49 311 1.0 0.0 0.00 0.00 0.00 37 1026.7
20220121215026 49 154 1.0 0.0 0.00 0.00 0.00 35 1026.7
20220121214610 49 124 1.0 0.0 0.00 0.00 0.00 35 1026.7
20220121214047 49 281 1.0 0.0 0.00 0.00 0.00 35 1026.6
20220121213525 49 309 1.0 0.0 0.00 0.00 0.00 34 1026.7
20220121213038 49 216 1.0 0.0 0.00 0.00 0.00 33 1026.6
20220121212524 49 299 1.0 0.0 0.00 0.00 0.00 34 1026.7
20220121212024 49 310 1.0 0.0 0.00 0.00 0.00 33 1026.7
20220121211604 49 60 1.0 0.0 0.00 0.00 0.00 35 1026.7
20220121211028 49 112 2.0 0.0 0.00 0.00 0.00 34 1026.7
20220121210528 49 315 2.0 0.0 0.00 0.00 0.00 32 1026.7
20220121210043 49 306 1.0 0.0 0.00 0.00 0.00 36 1026.8
20220121205522 49 314 1.0 0.0 0.00 0.00 0.00 32 1026.9
20220121205022 49 122 1.0 0.0 0.00 0.00 0.00 32 1026.9
20220121204533 49 250 2.0 0.0 0.00 0.00 0.00 36 1026.9
20220121204032 49 321 2.0 0.0 0.00 0.00 0.00 33 1026.9
20220121203534 49 303 1.0 0.0 0.00 0.00 0.00 36 1026.9
20220121203023 49 138 1.0 0.0 0.00 0.00 0.00 34 1027.0
20220121202521 49 104 1.0 0.0 0.00 0.00 0.00 30 1026.9
20220121202020 49 168 1.0 0.0 0.00 0.00 0.00 31 1026.9
20220121201532 49 165 1.0 0.0 0.00 0.00 0.00 32 1027.0
20220121201027 49 304 2.0 0.0 0.00 0.00 0.00 34 1027.0
20220121200518 49 353 2.0 0.0 0.00 0.00 0.00 35 1027.1
20220121200041 49 298 2.0 0.0 0.00 0.00 0.00 34 1027.3
20220121195525 49 323 1.0 0.0 0.00 0.00 0.00 31 1027.3
20220121195024 49 227 1.0 0.0 0.00 0.00 0.00 31 1027.4
20220121194518 49 261 1.0 0.0 0.00 0.00 0.00 35 1027.5
20220121194016 48 113 1.0 0.0 0.00 0.00 0.00 34 1027.6
20220121193513 48 329 1.0 0.0 0.00 0.00 0.00 36 1027.7
20220121193024 47 306 1.0 0.0 0.00 0.00 0.00 38 1027.7
20220121192511 47 107 1.0 0.0 0.00 0.00 0.00 33 1027.8
20220121192015 47 318 1.0 0.0 0.00 0.00 0.00 38 1027.9
20220121191531 47 306 1.0 0.0 0.00 0.00 0.00 34 1028.1
20220121191010 47 165 1.0 0.0 0.00 0.00 0.00 34 1028.2
20220121190513 47 141 1.0 0.0 0.00 0.00 0.00 36 1028.2
20220121190009 47 307 1.0 0.0 0.00 0.00 0.00 42 1028.3
20220121185508 46 138 1.0 0.0 0.00 0.00 0.00 34 1028.3
20220121185009 46 165 1.0 0.0 0.00 0.00 0.00 34 1028.5
20220121184518 45 85 2.0 0.0 0.00 0.00 0.00 36 1028.5
20220121184006 45 292 2.0 0.0 0.00 0.00 0.00 38 1028.7
20220121183503 45 317 3.0 0.0 0.00 0.00 0.00 42 1028.9
20220121183007 45 300 2.0 0.0 0.00 0.00 0.00 39 1028.9